Vertical_Velocity
0 0 0 1 1 1 1 1 1 1 0 -0 -0 -0 -1 -1 -1 -1 -0 -1 -0 -0 -0 -0 -1 -1 -1 -0 -0 -0 -0 -0 -0 -0 -0 -1 -1 -1 -0 -0 -0 -1 -1 0 1 1 0 0 0 -0 -0 -0 0 0 0 1 1 1 1 1 1 1 0 -0 -0 -1 -2 -2 0 2 3 2 2 2 3 1 -0 -1 0 1 1 2 2 2 2 2 2 2 2 2 3 3 2 1 0 -0 -0 -1 -1 -1 -1 -1 -1
0 0 1 0 -0 -0 0 1 1 0 -0 -0 -0 -0 -1 -1 -1 -1 -1 -1 -0 -1 -1 -1 -1 -1 -1 -1 -0 -0 -0 -0 -0 -0 -0 -1 -1 -1 -1 -0 -0 -0 -0 0 0 0 0 0 0 0 0 0 0 1 1 1 1 2 1 1 1 1 1 1 -0 -0 -1 -1 -1 -0 2 2 2 2 3 3 1 -0 -0 0 1 1 1 1 2 2 2 2 3 3 3 4 4 4 3 2 1 1 0 -0 -0 -0 -0
0 0 1 0 -1 -2 -0 0 0 0 -0 -0 -1 -1 -1 -2 -2 -2 -1 -0 -0 -1 -1 -1 -1 -0 -1 -1 -1 -1 -1 -1 -1 -0 -0 -1 -1 -2 -3 -1 -1 -1 0 0 0 0 0 0 0 1 1 1 1 1 1 1 2 2 2 2 2 2 2 1 1 0 -0 -0 -1 -1 1 2 2 1 2 2 2 1 -0 -0 0 0 0 1 1 1 2 2 2 3 3 3 4 4 4 4 3 2 2 2 1 1 1
0 0 1 0 -0 -1 -0 0 0 -0 -0 -1 -1 -2 -1 -2 -2 -1 -0 -0 -0 -0 -1 -1 -1 -0 -1 -1 -1 -1 -1 -1 -1 -1 -0 -0 -0 -1 -1 -1 -1 -0 0 0 0 0 0 0 1 1 2 2 2 2 2 2 2 2 2 2 2 2 2 2 1 1 1 1 -0 -0 0 2 2 2 1 1 2 2 1 1 1 0 1 0 -0 0 0 1 1 2 2 2 3 3 4 4 4 4 2 2 2 2 2
-0 -0 0 -0 -0 -0 -0 -0 -0 -0 -1 -1 -2 -2 -1 -1 -1 -1 -0 -0 -0 -0 -1 -1 -1 -1 -1 -1 -1 -1 -0 -0 -0 -0 -0 -0 -0 0 1 -0 -0 0 1 1 1 1 1 1 1 1 2 2 2 2 2 2 2 2 2 2 2 2 2 2 2 2 1 1 1 0 0 2 3 3 2 1 1 1 1 1 1 1 1 1 0 0 0 0 1 1 1 1 1 2 2 3 4 4 3 3 2 2 2
-0 -0 -0 -0 -0 -0 -0 -0 -0 -1 -1 -1 -1 -2 -1 -1 -1 -0 -0 -0 -0 -1 -1 -1 -1 -0 -0 -1 -0 -0 0 0 0 1 1 1 1 1 1 1 1 1 1 1 1 1 1 1 1 2 2 2 2 2 2 2 2 2 2 2 2 2 2 2 2 1 1 1 1 1 -0 1 2 3 2 1 1 1 1 1 1 1 1 1 2 1 1 1 1 1 1 1 1 1 1 1 2 3 3 3 2 2 1
-0 -0 -0 -0 -1 -1 -0 -0 -0 -1 -1 -1 -1 -1 -2 -1 -1 -1 -0 -0 -0 -0 -0 -0 -0 0 0 0 1 1 1 1 1 2 1 1 1 1 1 1 1 1 1 1 1 1 1 2 2 2 2 2 2 2 2 2 2 2 2 2 2 2 2 1 1 1 1 2 2 1 0 0 1 2 2 1 1 1 1 1 1 1 1 1 1 2 1 1 1 1 1 1 1 1 1 0 0 0 2 2 3 2 1
1 0 0 -0 -0 -0 0 0 -0 -0 -0 -1 -1 -1 -1 -1 -1 -0 -0 0 0 0 0 0 1 1 1 1 1 1 1 1 1 1 1 1 1 1 1 1 1 1 1 1 1 2 2 2 2 2 3 3 3 3 3 3 2 2 2 2 2 2 2 2 1 1 1 1 1 2 1 0 1 1 1 1 1 1 1 1 1 1 1 1 1 1 1 2 1 1 1 1 1 1 1 1 1 0 -0 1 1 2 2
1 1 0 -0 -0 -0 0 -0 -0 -0 -0 -0 -0 -1 -1 -0 -0 0 0 0 0 0 0 0 1 1 1 0 0 0 0 0 0 -0 0 0 0 0 0 1 1 1 1 1 1 1 1 2 2 2 3 3 3 3 3 3 2 2 2 2 3 3 3 2 2 1 1 1 1 2 2 1 1 1 1 1 1 1 0 0 1 1 1 1 1 1 1 2 2 2 2 1 1 1 1 1 1 0 0 0 1 1 1
0 0 -0 -0 -0 -0 -0 -0 -0 0 0 0 0 0 -0 0 0 0 0 0 0 -0 0 0 0 0 0 0 0 0 0 -0 -0 -0 -0 -0 -0 0 0 1 1 1 1 1 1 1 1 1 1 2 2 2 2 2 2 2 2 2 2 2 2 2 3 2 2 2 1 1 2 2 2 2 1 1 1 2 2 1 1 0 0 1 1 1 1 1 1 1 2 2 2 2 2 1 2 2 2 1 1 1 1 1 1
-0 -0 -1 -1 -1 -1 -1 -1 -0 0 0 -0 -0 -0 -0 -0 -0 -0 -0 0 0 0 0 0 0 0 -0 0 0 0 0 0 0 0 0 -0 0 0 0 1 1 1 1 1 1 1 1 1 1 1 1 1 1 2 1 1 1 1 1 1 1 1 1 1 1 1 1 1 1 2 2 2 2 1 1 2 3 4 3 2 1 1 1 1 1 1 1 1 1 1 2 2 2 2 2 2 2 1 1 1 1 1 1
-0 -0 -1 -1 -1 -1 -1 -1 -1 -1 -1 -1 -1 -1 -1 -1 -0 -0 0 0 1 1 1 1 0 0 0 0 0 0 0 0 0 0 0 0 0 0 0 0 0 1 0 0 1 1 1 1 0 0 0 1 1 1 1 1 1 0 0 0 1 1 0 -0 -0 -1 -1 -0 0 1 1 2 2 2 2 2 4 5 4 4 3 2 2 2 1 1 1 1 1 1 1 1 2 2 2 2 2 2 1 2 2 2 2
-1 -1 -1 -1 -1 -1 -1 -1 -1 -1 -1 -1 -1 -1 -1 -1 -0 0 1 1 1 1 1 1 1 1 1 1 1 1 1 1 1 0 0 0 0 0 0 0 0 0 -0 -0 -0 -0 -0 -0 -0 -0 -0 -0 0 0 0 0 0 1 1 1 1 1 1 -0 -1 -1 -1 -1 -1 -1 -0 0 0 0 0 2 3 4 3 3 3 3 2 1 1 1 1 1 1 1 1 0 1 1 1 2 2 2 2 2 2 2 2
-1 -1 -1 -1 -1 -1 -1 -1 -1 -1 -1 -1 -1 -1 -1 -1 -0 0 1 1 1 1 1 1 1 1 1 1 1 1 1 1 1 1 0 0 0 0 0 0 -0 -0 -0 -0 -1 -1 -1 -1 -1 -0 -0 -0 0 0 0 0 0 1 1 2 2 2 1 0 -0 -0 -0 -1 -1 -1 -1 -1 -1 -2 -2 0 1 1 1 1 2 2 1 1 1 1 1 0 -0 -0 0 0 -0 -0 0 1 1 1 1 1 1 1 1
-1 -1 -1 -1 -1 -1 -0 -0 -1 -1 -1 -1 -0 -0 -0 0 0 1 1 1 1 1 2 2 2 2 2 2 2 2 1 1 1 1 0 0 -0 -0 -0 -0 -0 -0 -0 -0 -0 -1 -0 -0 -0 -0 -0 0 1 1 1 1 1 1 2 2 2 2 1 1 0 0 0 0 0 0 1 1 -0 -1 -0 0 0 -0 -0 -0 -0 -1 -0 -0 0 1 1 -0 -1 -1 -0 -0 -0 -0 -0 -0 -0 -0 -0 0 0 0 1
-1 -1 -1 -1 -0 0 0 0 0 -0 -0 -0 0 1 1 1 1 1 1 1 1 2 2 2 2 2 2 2 2 1 1 1 1 1 0 0 -0 -0 -0 -0 -0 -0 -0 -0 -0 -0 -0 -0 -0 -0 0 1 1 1 1 1 1 1 2 2 2 2 1 1 0 0 0 0 1 2 3 4 3 2 3 3 3 2 1 1 0 -0 -0 -0 -0 -0 -0 -1 -2 -1 -0 -0 -0 0 0 -0 -0 -0 -1 -0 -0 -0 -0
-1 -1 -1 -0 0 1 1 1 1 1 1 1 1 1 2 2 2 2 1 1 2 2 2 2 2 1 1 1 1 1 1 1 1 1 1 0 0 0 0 0 0 0 0 0 -0 0 0 0 -0 -0 -0 0 1 1 1 1 1 1 1 2 1 1 1 1 1 1 2 2 3 4 4 6 6 5 5 6 5 4 3 3 3 2 2 2 2 1 0 -1 -2 -2 -1 -1 -1 -0 1 1 0 -0 -0 -0 -0 -1 -1
-1 -1 -0 0 1 1 2 2 2 2 1 1 1 1 2 2 2 2 2 2 2 2 2 1 1 1 1 1 1 1 1 1 1 1 1 1 1 1 0 1 1 1 1 0 0 0 0 -0 -0 -0 -1 -0 -0 -0 -0 -0 0 1 1 1 1 1 1 1 1 2 3 3 2 3 5 5 5 5 5 5 5 4 3 2 2 2 2 3 3 3 1 -2 -3 -2 -0 -1 -2 -1 3 3 2 1 2 2 1 1 -0
-1 -0 0 1 1 2 2 2 2 2 2 2 1 1 1 1 1 2 2 2 1 1 1 1 1 1 1 1 1 1 1 1 1 1 1 1 1 1 1 1 1 1 0 0 0 -0 -0 -0 -1 -1 -1 -1 -1 -1 -1 -1 -1 -0 -0 0 0 0 0 1 2 2 3 2 2 2 3 1 1 1 1 2 3 3 2 1 2 2 3 4 4 2 -1 -2 -0 3 6 4 3 4 5 4 3 3 6 6 5 4 3
-0 1 1 1 1 1 1 2 2 2 2 2 1 1 1 1 1 1 1 1 1 1 1 1 1 1 1 1 1 1 1 1 1 1 1 1 1 1 0 0 -0 -0 -0 -0 -0 -0 -1 -1 -1 -1 -1 -2 -2 -2 -2 -2 -1 -1 -1 -0 -0 -0 -0 0 1 2 2 1 1 1 1 0 -0 -0 -0 -0 -0 0 1 2 2 3 3 2 1 0 -1 1 5 9 12 11 10 9 8 6 5 5 6 5 5 5 5
0 1 1 1 1 1 1 1 2 2 2 2 2 1 1 1 1 1 1 1 1 1 1 1 1 1 1 1 1 1 1 1 1 0 0 0 0 -0 -0 -0 -0 -0 -1 -1 -1 -1 -1 -1 -1 -2 -2 -2 -2 -2 -2 -2 -2 -2 -1 -1 -1 -1 -1 -0 -0 1 1 -0 -0 -0 0 -0 -0 -0 0 -0 -0 -0 0 1 1 0 -0 -1 -1 -1 -2 4 7 8 7 8 9 8 7 5 5 4 2 -0 -0 0 0
0 0 1 1 1 0 0 1 1 2 2 2 1 1 1 1 1 1 1 1 1 1 1 1 1 1 1 1 1 1 1 0 -0 -0 -0 -0 -0 -0 -0 -0 -0 -0 -0 -1 -1 -1 -2 -2 -2 -2 -2 -2 -2 -2 -2 -2 -2 -2 -1 -1 -1 -1 -1 -1 -1 -1 -1 -1 -1 -1 -0 -1 -1 -1 -0 -0 -0 -0 -0 -1 -1 -1 -1 -1 -1 -1 -1 5 7 6 1 2 3 3 2 0 0 0 -1 -2 -2 -1 -1
-0 -0 -0 0 0 0 0 0 1 1 1 1 1 1 1 1 0 0 -0 -0 -0 0 0 1 1 1 1 0 0 0 -0 -0 -1 -1 -1 -1 -0 -0 -0 -0 -0 -0 -1 -1 -1 -1 -1 -2 -2 -2 -2 -2 -2 -2 -2 -2 -1 -1 -1 -1 -1 -1 -1 -1 -1 -1 -1 -0 -0 -1 -1 -1 -1 -1 -2 -1 -1 -1 -2 -2 -2 -1 -1 -1 -1 -1 -1 3 5 5 0 -0 -0 -0 -1 -1 -1 -0 -0 1 2 3 3
-0 -0 -0 0 0 0 0 0 -0 -0 0 0 0 0 0 0 -0 -0 -1 -0 -0 -0 -0 -0 -0 0 0 -0 -0 -1 -2 -1 -1 -1 -1 -1 -1 -1 -1 -1 -1 -1 -2 -2 -2 -1 -1 -1 -2 -2 -2 -2 -2 -2 -2 -1 -1 -1 -0 -0 -0 -0 -0 -0 -0 0 1 1 0 -0 -1 -1 -1 -1 -1 -1 -2 -2 -3 -2 -2 -2 -2 -2 -2 -1 -1 -0 3 6 4 2 -0 -1 -1 -1 -0 1 1 3 4 4 4
0 0 1 1 1 1 1 -0 -1 -1 -0 0 -0 0 1 0 0 -0 -1 -0 -0 -0 -0 -1 -1 -1 -1 -1 -2 -2 -3 -2 -1 -1 -1 -2 -2 -2 -2 -2 -2 -2 -2 -2 -2 -2 -1 -1 -1 -2 -2 -2 -2 -2 -2 -2 -1 -1 -0 0 1 1 1 2 2 2 2 1 1 1 1 1 1 1 1 -0 -1 -1 -2 -2 -2 -2 -2 -2 -2 -2 -2 -2 -1 3 7 6 2 -2 -3 -2 -1 0 0 1 2 3 2
1 1 1 1 1 0 0 -0 -0 -0 1 1 1 1 1 2 2 1 0 0 -0 -1 -1 -2 -2 -2 -2 -3 -2 -2 -2 -1 -1 -1 -1 -2 -2 -2 -2 -1 -1 -1 -1 -1 -1 -1 -0 -0 0 0 0 -0 -1 -1 -2 -1 -1 -0 0 0 1 1 2 3 3 2 2 1 1 1 2 2 3 3 2 2 1 1 1 0 -0 -1 -2 -2 -3 -3 -4 -4 -4 -1 4 5 4 2 -3 -3 -3 -2 -1 -1 0 1 1
2 2 1 1 0 1 1 1 1 2 2 3 3 2 2 3 3 2 1 -0 -1 -2 -2 -1 -1 -2 -2 -2 -2 -2 -1 -0 -0 -0 0 -1 -1 -1 -1 -1 -0 -0 -0 -0 0 0 1 1 1 2 2 2 2 1 1 -0 -1 -0 0 1 2 2 2 2 2 1 1 0 -0 -0 -0 0 1 1 2 4 5 4 3 2 1 0 -1 -2 -2 -2 -1 -2 -3 -2 -1 0 2 3 3 2 1 -0 -1 -1 0 2 3
2 2 1 1 1 2 3 3 3 2 2 3 3 2 -0 0 1 1 0 -0 -1 -1 -1 -1 -1 -1 -2 -2 -2 -1 -1 -0 -0 -0 0 -0 -1 -1 -1 -1 -0 -0 -0 0 0 1 1 2 2 2 2 2 2 2 2 1 0 0 0 0 1 1 1 1 1 1 0 -0 -1 -1 -1 -1 -1 -1 -0 0 1 2 3 5 4 3 2 4 6 8 10 10 10 8 7 7 6 6 6 7 6 6 5 5 5 5 4
2 1 0 -0 1 2 2 3 2 1 1 1 -0 -2 -2 -1 0 0 0 -0 -1 -1 -1 -1 -1 -1 -1 -1 -1 -1 -1 -0 -0 0 -0 -0 -1 -1 -1 -1 -1 -0 -0 0 0 1 1 2 2 1 1 2 2 2 2 2 2 2 2 1 0 0 1 1 1 0 -0 -1 -1 -1 -1 -2 -2 -2 -2 -3 -3 -3 -2 2 5 8 12 16 17 16 16 14 14 14 12 12 9 6 4 7 10 10 8 7 5 4 5
1 0 -1 -0 -0 0 1 2 2 0 -1 -2 -2 -2 -1 -0 0 0 -0 -1 -1 -1 -1 -1 -1 -1 -1 -1 -1 -1 -1 -1 -0 -0 -0 -0 -0 -1 -1 -1 -1 -1 -0 -0 0 1 1 1 2 1 1 1 1 2 2 2 3 3 3 2 2 1 1 1 0 -0 -0 -0 -0 -0 -1 -1 -2 -3 -3 -4 -4 -4 -3 -1 4 9 14 13 10 6 6 5 3 2 3 6 10 11 9 12 11 8 3 2 3 5 7
0 -0 -1 -0 -0 -0 -0 0 0 -0 -3 -3 -2 -1 -0 0 0 -0 -1 -1 -1 -1 -1 -1 -1 -1 -0 -0 -1 -1 -1 -1 -1 -1 -1 -0 -0 -0 -1 -1 -1 -1 -0 -0 0 1 1 2 2 1 1 1 1 2 2 2 2 2 2 3 2 2 1 1 1 1 1 0 -0 -0 -0 -0 -1 -2 -2 -2 -2 -1 -0 -1 2 4 0 1 3 4 5 4 3 1 -1 2 6 8 8 10 7 2 -2 -2 -2 -1 2
-0 -0 -0 -1 -2 -2 -0 0 -1 -2 -2 -1 -0 -0 -0 -0 -0 -0 -1 -1 -1 -1 -1 -1 -1 -1 -1 -0 -0 -1 -1 -2 -2 -2 -1 -1 -0 -0 -0 -0 -1 -0 -0 0 1 1 1 2 2 2 2 2 2 2 2 2 1 1 2 2 2 2 2 2 2 2 1 0 0 0 0 0 0 -0 -0 -0 1 1 1 1 1 -1 -6 -2 1 3 4 1 -2 -4 -5 -5 -5 -4 3 6 3 -1 -3 -3 -2 -2 -2
-0 1 0 -1 -2 -2 -0 -0 -0 -1 -1 -0 -0 -0 -0 -0 -0 -0 -1 -1 -1 -1 -1 -1 -1 -1 -1 -1 -1 -1 -1 -2 -2 -2 -1 -1 -0 -0 -0 -0 -0 -0 0 0 1 1 1 1 1 1 2 2 2 2 2 1 0 1 1 1 2 2 2 2 2 1 1 0 0 0 0 0 1 1 2 1 2 2 1 1 -0 -2 -3 1 4 5 2 -1 -3 -2 -1 1 4 8 10 7 2 -1 -3 -3 -2 -1 -1
-0 1 1 -0 -1 -1 -1 -0 -0 -0 -1 -1 -1 -1 -0 -0 -0 -0 -1 -0 -1 -1 -1 -1 -1 -1 -1 -1 -1 -1 -1 -1 -1 -1 -1 -0 -0 -0 -1 -0 -0 0 1 1 1 1 1 1 1 1 1 1 1 1 0 -1 -1 -1 0 1 1 1 1 1 1 1 0 0 0 0 0 1 1 2 2 2 3 2 1 -0 -2 -3 -3 -1 1 0 -2 -3 -1 2 4 4 4 3 3 3 2 -0 -2 -2 -2 -1 -1
0 1 1 0 -0 -1 -2 -1 -1 -1 -1 -1 -1 -1 -1 -0 -0 -0 0 0 0 -0 -0 -0 0 0 0 -0 -0 -0 -1 -0 -0 -0 -1 -0 -0 -0 -0 -0 -0 -0 0 1 1 1 1 1 1 0 0 0 -0 -0 -1 -1 -1 -1 0 0 0 0 1 1 1 1 1 1 1 1 1 1 1 2 2 3 3 2 1 -0 -2 -3 -3 -3 -3 -4 -4 -2 -1 0 2 3 4 4 3 3 2 1 -0 -1 -1 -1 -1
1 2 1 -0 -1 -1 -1 -1 -1 -0 -1 -1 -1 -1 -1 -1 -0 0 1 0 0 0 1 1 1 0 -0 -0 -1 -1 -1 -0 0 0 0 0 -0 -0 -0 -0 -0 -0 -1 -0 0 1 1 1 1 0 -0 -0 -0 -0 -0 -0 0 1 1 1 0 0 0 -0 0 0 1 1 1 1 0 1 1 1 2 2 2 1 1 0 -1 -2 -3 -4 -4 -4 -3 -1 -0 -0 -1 0 1 2 3 2 2 1 1 1 1 -0 -1
1 1 1 -1 -1 -1 -1 -0 -0 -0 -1 -1 -0 -0 -0 -0 0 0 0 0 -0 -0 0 1 0 -1 -1 -2 -2 -1 -2 -1 -1 -1 -0 -0 -1 -1 -1 -1 -1 -1 -1 -1 -1 -0 1 1 0 -0 -0 -0 0 0 0 1 1 1 1 0 0 -0 -0 -0 -1 -0 0 1 1 1 1 1 1 1 1 0 1 1 2 1 -0 -1 -2 -2 -2 -2 -1 -1 -1 -2 -3 -3 -2 -1 -1 -1 -1 -0 1 1 1 0 -0
1 0 0 -0 -0 -0 -0 -0 -0 -0 -1 -1 -0 0 0 1 0 0 -0 -1 -1 -1 -1 -0 -0 -1 -1 -2 -2 -2 -3 -3 -2 -2 -2 -2 -2 -2 -2 -2 -2 -2 -2 -1 -1 -0 -0 0 -0 -0 -0 0 0 0 0 1 1 1 1 0 -0 -0 -0 -1 -1 -1 -0 1 1 1 1 1 0 0 -0 -0 0 1 1 0 -0 -0 -1 -0 -0 0 -0 -0 -1 -2 -2 -2 -3 -3 -3 -4 -4 -3 -1 -0 0 0 0
0 0 0 0 0 1 0 0 -0 -1 -1 -1 -0 -0 0 0 0 -0 -1 -1 -2 -2 -2 -1 -1 -1 -1 -1 -1 -2 -2 -2 -2 -3 -3 -3 -3 -3 -3 -3 -3 -3 -3 -2 -1 -0 -0 -0 -1 -1 -0 -0 -0 0 0 1 1 1 1 0 -0 -0 -0 -1 -1 -1 -1 -0 0 1 1 0 0 -0 -1 -0 -0 0 0 -0 -0 -0 -0 0 1 1 1 1 0 -0 -0 -0 -1 -1 -2 -2 -2 -1 -1 0 1 1 1
1 0 1 1 1 0 -0 -0 -1 -1 -1 -1 -0 -0 0 0 0 0 -0 -1 -2 -2 -2 -2 -2 -1 -1 -1 -1 -1 -1 -1 -2 -2 -2 -3 -3 -3 -3 -3 -3 -3 -2 -2 -1 -0 -0 -1 -1 -1 -1 -0 -0 0 0 0 0 0 0 0 0 -0 -0 -1 -1 -1 -1 -1 -1 -0 -0 -0 -0 -0 -0 -0 -0 -0 -0 -1 -1 -0 -0 0 0 1 1 1 0 0 0 0 -0 -0 -0 -0 -0 0 0 1 1 1 1
1 1 1 1 0 -0 -0 -1 -1 -1 -1 -1 -0 -0 0 0 0 -0 -0 -1 -1 -2 -2 -3 -3 -3 -2 -2 -2 -2 -1 -1 -1 -2 -2 -2 -3 -3 -3 -3 -3 -3 -2 -1 -1 -1 -1 -1 -2 -2 -1 -1 -0 -0 -0 -0 -0 -0 -0 0 0 0 0 -0 -0 -1 -1 -2 -2 -2 -1 -1 -0 -0 -0 -0 -0 -0 -1 -1 -0 -0 0 0 0 0 0 0 0 0 -0 -0 -0 -0 0 0 1 0 0 1 1 0 -0
1 1 0 -0 -0 -1 -1 -1 -1 -1 -1 -0 -0 -0 -0 -1 -1 -1 -1 -1 -1 -1 -2 -2 -3 -3 -3 -3 -3 -2 -2 -1 -1 -2 -3 -2 -2 -3 -3 -3 -3 -2 -2 -1 -1 -1 -1 -2 -2 -2 -1 -1 -0 -0 -0 -1 -1 -0 -0 0 1 1 1 1 0 -0 -1 -2 -2 -2 -2 -2 -1 -0 -0 -0 -0 -0 -0 -0 -0 0 0 0 0 0 0 0 0 0 -0 -0 -0 -0 0 1 1 0 0 1 0 -0 -1
0 -0 -0 -0 -1 -1 -1 -1 -1 -1 -0 -0 -0 -1 -1 -2 -2 -2 -2 -1 -1 -1 -1 -1 -2 -2 -2 -2 -2 -3 -3 -2 -2 -2 -3 -3 -3 -2 -2 -3 -3 -2 -2 -1 -1 -1 -1 -1 -2 -2 -2 -1 -1 -0 -0 -0 -0 -0 -0 0 1 1 1 1 1 0 -0 -1 -2 -2 -2 -2 -1 -0 0 0 0 0 0 0 1 1 1 1 1 1 1 1 1 1 1 1 1 1 1 1 1 1 1 0 -0 -1 -1
-0 -0 -1 -1 -1 -1 -1 -1 -1 -1 -0 -1 -1 -1 -2 -2 -2 -2 -2 -2 -1 -1 -0 -1 -1 -2 -2 -2 -2 -3 -4 -4 -4 -3 -3 -3 -3 -3 -2 -3 -3 -3 -2 -1 -1 -1 -1 -1 -2 -2 -1 -1 -1 -1 -0 -0 -0 -1 -0 -0 -0 0 1 1 1 0 -0 -0 -1 -1 -2 -2 -2 -1 -0 -0 -0 0 0 1 1 1 1 1 1 1 1 1 1 1 1 1 2 2 2 2 2 2 1 0 -0 -0 -1
-0 -1 -1 -1 -1 -1 -1 -1 -1 -1 -1 -1 -2 -2 -2 -2 -2 -2 -1 -1 -1 -1 -0 -0 -0 -1 -2 -2 -2 -3 -3 -4 -4 -3 -3 -3 -3 -2 -2 -3 -3 -3 -3 -2 -1 -1 -1 -2 -2 -2 -1 -1 -1 -1 -2 -2 -2 -2 -1 -1 -1 -1 -0 -0 -0 -0 -1 -1 -1 -1 -1 -1 -2 -2 -2 -2 -2 -2 -2 -1 -1 -1 -1 -1 -1 -1 -1 -1 -1 -1 -1 -0 0 1 2 2 1 1 0 0 0 0 0
-1 -1 -2 -2 -2 -2 -2 -2 -2 -2 -2 -2 -2 -1 -1 -1 -1 -1 -1 -1 -1 -1 -1 -1 -0 -0 -0 -1 -2 -2 -2 -3 -3 -3 -3 -3 -3 -3 -2 -2 -3 -4 -4 -3 -2 -1 -1 -2 -2 -2 -1 -0 -0 -1 -3 -4 -4 -3 -2 -2 -2 -1 -1 -1 -1 -1 -2 -1 -1 -2 -2 -2 -3 -3 -4 -5 -5 -6 -5 -4 -4 -3 -3 -4 -4 -3 -3 -3 -3 -3 -3 -2 -2 -1 -1 -1 -1 -1 -1 -0 -0 0 0
-1 -2 -2 -2 -2 -2 -2 -2 -2 -2 -2 -2 -2 -1 -1 -1 -1 -1 -1 -2 -2 -2 -2 -2 -1 -0 0 -0 -1 -2 -3 -3 -4 -4 -4 -3 -2 -3 -4 -3 -3 -3 -4 -4 -3 -2 -1 -2 -2 -2 -1 -1 -2 -3 -4 -4 -4 -3 -3 -3 -2 -2 -2 -3 -3 -3 -3 -3 -3 -3 -3 -4 -4 -4 -4 -5 -6 -6 -7 -6 -5 -4 -4 -4 -4 -4 -3 -3 -3 -3 -3 -2 -2 -2 -2 -2 -2 -1 -1 -1 -1 -1 -1
-2 -2 -2 -2 -2 -3 -2 -2 -2 -2 -2 -2 -2 -2 -2 -2 -3 -3 -3 -3 -3 -3 -3 -3 -3 -2 -1 -1 -2 -3 -4 -4 -4 -5 -5 -4 -2 -1 -2 -3 -3 -4 -4 -4 -3 -2 -2 -2 -2 -2 -2 -3 -3 -4 -4 -3 -3 -3 -4 -4 -4 -3 -3 -4 -4 -4 -4 -4 -4 -4 -4 -4 -4 -4 -4 -4 -4 -5 -5 -6 -6 -5 -4 -3 -3 -3 -3 -2 -2 -2 -2 -2 -2 -1 -1 -1 -1 -1 -1 -1 -1 -1 -2
-2 -2 -2 -3 -3 -3 -3 -3 -2 -2 -2 -2 -2 -3 -3 -3 -3 -3 -3 -3 -3 -3 -2 -3 -3 -4 -3 -2 -3 -4 -4 -4 -4 -3 -2 -5 -6 -6 -3 -3 -3 -4 -4 -3 -3 -2 -1 -2 -3 -3 -3 -3 -3 -3 -3 -3 -3 -4 -4 -5 -5 -5 -4 -4 -4 -5 -4 -4 -4 -3 -3 -3 -3 -3 -3 -3 -4 -4 -4 -5 -5 -6 -5 -4 -4 -3 -3 -2 -2 -2 -2 -2 -2 -1 -1 -1 -1 -1 -1 -1 -1 -2 -2
-2 -2 -3 -3 -3 -3 -3 -3 -3 -3 -2 -3 -3 -3 -4 -3 -3 -3 -3 -2 -2 -2 -2 -1 -2 -4 -4 -3 -3 -3 -3 -4 -4 -4 -3 -5 -7 -9 -9 -6 -2 -0 -1 -1 -1 -1 -1 -1 -2 -3 -3 -2 -2 -3 -3 -3 -4 -4 -4 -4 -4 -4 -4 -4 -4 -4 -4 -4 -3 -3 -3 -3 -3 -3 -3 -3 -3 -3 -3 -4 -4 -5 -6 -6 -5 -5 -4 -4 -3 -3 -3 -2 -2 -2 -2 -2 -1 -1 -1 -1 -2 -2 -1
-2 -2 -2 -2 -3 -3 -3 -3 -3 -3 -3 -3 -3 -3 -3 -2 -2 -2 -2 -2 -2 -2 -3 -2 -2 -2 -3 -3 -2 -2 -2 -2 -4 -5 -6 -4 -2 -3 -4 -4 -3 -3 -3 -1 1 1 -0 -0 -2 -4 -4 -3 -3 -3 -3 -3 -3 -4 -3 -4 -4 -4 -4 -4 -4 -5 -5 -4 -4 -3 -3 -3 -3 -3 -3 -3 -3 -3 -3 -3 -4 -4 -5 -5 -6 -6 -6 -6 -5 -4 -4 -3 -3 -3 -2 -2 -2 -1 -1 -1 -2 -2 -1
-2 -2 -2 -3 -3 -3 -3 -3 -3 -3 -3 -3 -2 -2 -1 -1 -1 -1 -1 -2 -2 -2 -3 -3 -2 -1 -1 -1 -1 -1 -1 -2 -2 -3 -4 -3 -0 1 0 -5 -8 -11 -13 -13 -6 1 4 -0 -3 -5 -6 -6 -6 -5 -4 -4 -4 -4 -3 -4 -4 -4 -4 -5 -5 -6 -6 -6 -5 -5 -4 -4 -4 -4 -4 -4 -3 -3 -3 -3 -3 -3 -4 -4 -5 -5 -5 -5 -5 -5 -4 -4 -4 -3 -3 -3 -2 -2 -1 -2 -2 -2 -1
-2 -3 -3 -3 -3 -3 -3 -3 -3 -2 -2 -2 -1 -1 -1 -1 -1 -1 -1 -1 -1 -1 -2 -2 -2 -1 0 0 -0 -0 -1 -1 -1 -1 -3 -4 -4 -3 -2 -6 -6 -5 -5 -10 -12 -10 -1 -5 -10 -13 -7 -7 -7 -7 -5 -5 -5 -5 -4 -5 -5 -5 -5 -5 -6 -6 -7 -7 -6 -6 -6 -5 -5 -4 -4 -4 -4 -3 -3 -3 -3 -3 -3 -4 -4 -4 -5 -5 -4 -4 -4 -4 -4 -3 -3 -3 -2 -2 -2 -2 -2 -2 -1
-3 -4 -4 -4 -4 -3 -3 -3 -2 -2 -2 -1 -1 -1 -1 -1 -1 -1 -1 -0 -0 -0 -1 -1 -2 -2 -1 -0 -0 -1 -0 -0 -0 -0 -0 -2 -5 -6 -6 -3 -1 -0 -1 -2 -6 -10 -12 -9 -10 -12 -8 -4 -4 -5 -5 -5 -5 -5 -5 -5 -5 -5 -5 -5 -5 -6 -6 -6 -6 -6 -6 -6 -5 -5 -4 -4 -4 -4 -3 -3 -3 -2 -3 -3 -3 -4 -4 -4 -4 -4 -4 -4 -4 -3 -3 -3 -2 -2 -2 -2 -2 -2 -1
-3 -4 -4 -4 -3 -3 -3 -2 -2 -2 -2 -2 -1 -1 -1 -0 -0 -1 -1 -0 -0 -0 -0 -0 -0 -1 -2 -1 -0 -0 1 1 1 1 1 0 -2 -3 -3 -4 -7 -8 -4 -3 -1 -2 -9 -12 -12 -10 -6 -3 -4 -5 -4 -4 -4 -5 -4 -4 -4 -4 -4 -4 -4 -5 -5 -5 -5 -5 -6 -6 -6 -5 -4 -4 -4 -4 -4 -3 -3 -3 -3 -3 -3 -3 -3 -3 -3 -4 -4 -4 -4 -3 -3 -3 -3 -2 -2 -2 -2 -2 -1
-3 -3 -3 -3 -3 -3 -2 -2 -2 -2 -1 -1 -1 -0 -0 -0 -0 -0 -0 0 0 0 -0 -0 -0 -0 -1 -1 -1 0 1 3 3 2 0 1 0 -1 -2 -2 -3 -5 -7 -5 -4 -2 -2 -7 -14 -17 -9 -2 -5 -9 -7 -4 -4 -4 -5 -4 -4 -4 -4 -4 -4 -4 -5 -5 -4 -4 -4 -5 -5 -6 -5 -5 -4 -4 -4 -3 -3 -3 -3 -3 -3 -3 -3 -3 -3 -3 -3 -4 -4 -4 -3 -3 -3 -3 -2 -2 -1 -1 -1
-2 -2 -2 -2 -2 -2 -2 -2 -2 -1 -1 -1 -0 -0 -0 -0 0 1 1 1 1 0 -0 -0 0 1 0 -1 -1 0 1 2 3 3 1 1 1 1 -0 -1 -0 1 1 1 -1 -4 -5 -1 -4 -11 -20 -8 -3 -4 -10 -7 -4 -3 -4 -4 -4 -3 -3 -3 -3 -3 -4 -4 -4 -4 -4 -4 -4 -5 -6 -5 -5 -5 -4 -4 -3 -3 -3 -3 -3 -3 -3 -3 -3 -3 -3 -3 -4 -4 -4 -3 -3 -3 -3 -2 -1 -1 -0
-1 -1 -2 -2 -2 -2 -2 -2 -1 -1 -1 -0 -0 0 0 0 1 1 1 1 1 1 1 1 1 1 1 0 -0 0 1 -0 0 1 2 2 2 1 1 1 0 -0 -0 -0 -1 -2 -5 -4 -0 -2 -16 -22 -11 1 -0 -7 -8 -6 -3 -3 -3 -3 -3 -3 -3 -3 -3 -3 -4 -4 -4 -3 -3 -4 -5 -5 -5 -5 -4 -4 -4 -3 -3 -3 -3 -3 -3 -3 -3 -3 -3 -3 -3 -3 -3 -3 -3 -3 -3 -3 -2 -2 -1
-1 -1 -2 -2 -2 -2 -2 -1 -1 -1 -1 -0 -0 0 0 1 1 1 1 0 1 1 1 1 1 1 1 1 0 -0 -0 -0 -1 -2 -1 1 1 1 0 1 1 2 2 2 2 1 0 -0 -1 -1 -3 -15 -23 -20 1 -0 -5 -9 -8 -5 -3 -2 -3 -3 -4 -4 -4 -3 -3 -4 -4 -3 -3 -3 -4 -4 -5 -4 -4 -4 -3 -3 -3 -3 -3 -3 -3 -3 -3 -2 -2 -2 -2 -2 -2 -2 -2 -3 -3 -4 -4 -4 -4
-1 -2 -2 -2 -2 -2 -2 -1 -1 -1 -1 -0 -0 0 0 0 1 1 1 1 1 1 2 2 2 2 1 1 -0 -1 -1 -1 -1 -2 -3 -2 -1 -0 0 -0 -0 0 0 1 2 2 3 2 1 1 3 2 -9 -22 -26 -8 -2 -3 -8 -8 -6 -5 -4 -4 -4 -5 -5 -4 -4 -4 -4 -4 -4 -3 -3 -4 -4 -4 -4 -3 -3 -2 -2 -2 -2 -3 -3 -2 -2 -2 -2 -1 -1 -1 -1 -1 -1 -2 -3 -4 -4 -5 -5
-2 -2 -2 -2 -2 -2 -1 -1 -1 -0 -0 -0 -0 -0 -0 0 0 1 1 2 2 2 2 2 3 2 2 1 -0 -1 -1 -1 -1 -1 -2 -3 -3 -2 -1 -1 -0 -0 -1 -0 0 1 1 2 3 4 5 5 3 -4 -17 -20 -14 -6 -6 -4 -5 -7 -8 -7 -6 -5 -5 -6 -5 -5 -5 -5 -5 -5 -4 -4 -4 -4 -4 -4 -3 -2 -2 -2 -2 -2 -2 -2 -2 -1 -1 -1 -1 -1 -0 -0 -1 -2 -3 -3 -4 -4 -4
Height
1512 1512 1512 1512 1512 1512 1512 1512 1512 1512 1512 1511 1511 1511 1511 1511 1511 1511 1511 1510 1510 1510 1510 1510 1510 1510 1509 1509 1509 1509 1509 1509 1509 1508 1508 1508 1508 1508 1507 1507 1507 1507 1507 1507 1506 1506 1506 1505 1505 1505 1505 1504 1504 1504 1504 1504 1504 1503 1503 1503 1502 1502 1502 1502 1502 1502 1501 1501 1501 1502 1502 1502 1502 1501 1501 1500 1500 1499 1500 1500 1500 1500 1500 1500 1500 1500 1500 1501 1501 1501 1501 1501 1501 1501 1501 1501 1501 1501 1501 1501 1501 1501 1501
1512 1512 1512 1512 1512 1511 1511 1512 1512 1512 1512 1511 1511 1511 1511 1511 1511 1511 1511 1511 1510 1510 1510 1510 1510 1510 1509 1509 1509 1509 1509 1509 1509 1508 1508 1508 1508 1507 1507 1507 1507 1507 1507 1506 1506 1506 1506 1505 1505 1505 1505 1504 1504 1504 1504 1504 1503 1503 1503 1502 1502 1502 1502 1501 1501 1501 1501 1501 1501 1501 1502 1502 1501 1501 1501 1501 1500 1499 1499 1499 1499 1499 1499 1499 1499 1499 1499 1500 1500 1500 1500 1500 1501 1501 1501 1500 1500 1500 1500 1500 1500 1501 1501
1512 1512 1512 1512 1511 1511 1511 1511 1512 1512 1512 1511 1511 1511 1511 1511 1511 1511 1511 1510 1510 1510 1510 1510 1510 1509 1509 1509 1509 1509 1509 1509 1508 1508 1508 1508 1507 1507 1507 1507 1507 1507 1507 1506 1506 1506 1506 1505 1505 1505 1504 1504 1504 1504 1504 1504 1503 1503 1503 1502 1502 1502 1501 1501 1501 1501 1501 1501 1500 1500 1501 1501 1501 1501 1501 1501 1500 1500 1499 1499 1499 1499 1499 1499 1499 1499 1499 1499 1499 1499 1499 1499 1499 1500 1500 1500 1500 1500 1499 1499 1499 1499 1500
1512 1512 1512 1512 1512 1511 1511 1512 1512 1512 1512 1511 1511 1511 1511 1511 1511 1511 1510 1510 1510 1510 1510 1510 1509 1509 1509 1509 1509 1509 1509 1508 1508 1508 1508 1508 1507 1507 1507 1507 1507 1506 1506 1506 1506 1506 1505 1505 1505 1505 1505 1504 1504 1504 1504 1504 1503 1503 1502 1502 1502 1501 1501 1501 1501 1500 1500 1500 1500 1500 1500 1500 1501 1500 1500 1500 1500 1500 1499 1499 1499 1499 1499 1499 1498 1498 1498 1498 1498 1498 1498 1498 1499 1499 1499 1499 1499 1499 1499 1499 1499 1499 1499
1512 1512 1512 1512 1512 1512 1512 1512 1512 1512 1512 1511 1511 1511 1511 1511 1511 1510 1510 1510 1510 1510 1510 1509 1509 1509 1509 1509 1509 1509 1509 1508 1508 1508 1508 1508 1508 1507 1507 1507 1507 1506 1506 1506 1506 1506 1506 1505 1505 1505 1505 1504 1504 1504 1504 1503 1503 1503 1502 1502 1501 1501 1501 1501 1500 1500 1500 1500 1499 1499 1500 1500 1500 1500 1500 1499 1499 1499 1499 1499 1499 1498 1498 1498 1498 1498 1498 1497 1497 1498 1497 1497 1497 1498 1498 1498 1498 1498 1498 1498 1498 1498 1498
1512 1512 1512 1512 1512 1512 1512 1512 1512 1512 1511 1511 1511 1511 1511 1511 1510 1510 1510 1510 1510 1510 1510 1510 1509 1509 1509 1509 1509 1509 1509 1509 1509 1508 1508 1508 1508 1508 1507 1507 1507 1507 1506 1506 1506 1506 1505 1505 1505 1505 1504 1504 1504 1504 1503 1503 1503 1502 1502 1502 1501 1501 1501 1500 1500 1500 1499 1499 1499 1499 1499 1499 1499 1499 1499 1499 1499 1499 1498 1498 1498 1498 1498 1497 1497 1497 1497 1497 1497 1497 1496 1496 1496 1496 1496 1497 1497 1497 1497 1497 1497 1497 1496
1512 1512 1512 1511 1511 1512 1512 1512 1512 1512 1511 1511 1511 1511 1511 1511 1510 1510 1510 1510 1510 1510 1510 1510 1510 1510 1510 1509 1509 1509 1509 1509 1509 1509 1508 1508 1508 1508 1507 1507 1507 1506 1506 1506 1506 1505 1505 1505 1504 1504 1504 1504 1503 1503 1503 1502 1502 1502 1501 1501 1501 1500 1500 1500 1499 1499 1499 1499 1499 1499 1498 1498 1499 1499 1499 1499 1498 1498 1498 1498 1497 1497 1497 1497 1496 1496 1496 1496 1496 1496 1496 1495 1495 1495 1495 1495 1496 1496 1495 1495 1495 1496 1496
1512 1512 1512 1511 1511 1512 1512 1512 1512 1512 1511 1511 1511 1511 1511 1511 1511 1511 1511 1510 1510 1510 1510 1510 1510 1510 1510 1510 1509 1509 1509 1509 1509 1508 1508 1508 1507 1507 1507 1506 1506 1506 1505 1505 1505 1505 1504 1504 1504 1504 1504 1503 1503 1502 1502 1502 1501 1501 1501 1500 1500 1500 1500 1499 1499 1499 1499 1499 1498 1498 1498 1498 1498 1498 1498 1498 1498 1497 1497 1497 1497 1496 1496 1496 1496 1495 1495 1495 1495 1495 1495 1494 1494 1494 1494 1494 1494 1494 1494 1494 1494 1494 1494
1512 1512 1511 1511 1511 1511 1512 1512 1511 1511 1511 1511 1511 1511 1511 1511 1511 1511 1511 1511 1510 1510 1510 1510 1510 1510 1509 1509 1509 1509 1509 1508 1508 1508 1508 1507 1507 1507 1506 1506 1505 1505 1505 1505 1504 1504 1504 1504 1503 1503 1503 1502 1502 1502 1501 1501 1501 1500 1500 1500 1500 1499 1499 1499 1499 1499 1498 1498 1498 1498 1497 1497 1497 1497 1497 1497 1497 1497 1496 1496 1496 1496 1495 1495 1495 1494 1494 1494 1494 1494 1494 1494 1493 1493 1493 1493 1493 1493 1493 1493 1493 1493 1493
1511 1511 1511 1511 1511 1511 1511 1511 1511 1511 1511 1511 1511 1511 1511 1511 1511 1511 1511 1510 1510 1510 1510 1510 1510 1509 1509 1509 1509 1509 1508 1508 1508 1507 1507 1507 1506 1506 1506 1505 1505 1504 1504 1504 1504 1504 1503 1503 1503 1502 1502 1502 1501 1501 1501 1500 1500 1500 1499 1499 1499 1499 1499 1499 1499 1498 1498 1498 1497 1497 1497 1497 1496 1496 1496 1496 1496 1496 1496 1495 1495 1495 1494 1494 1494 1494 1493 1493 1493 1493 1493 1492 1492 1492 1492 1492 1492 1492 1492 1492 1491 1491 1492
1511 1511 1511 1511 1511 1511 1511 1511 1511 1511 1511 1511 1511 1511 1511 1511 1511 1510 1510 1510 1510 1510 1510 1509 1509 1509 1509 1509 1508 1508 1508 1507 1507 1507 1506 1506 1506 1505 1505 1505 1504 1504 1504 1504 1503 1503 1503 1502 1502 1502 1501 1501 1500 1500 1500 1500 1499 1499 1499 1499 1499 1498 1498 1498 1498 1498 1497 1497 1497 1496 1496 1496 1495 1495 1495 1495 1495 1495 1495 1495 1494 1494 1494 1493 1493 1493 1492 1492 1492 1491 1491 1491 1491 1491 1491 1491 1490 1491 1491 1490 1490 1490 1490
1511 1511 1511 1511 1511 1511 1511 1511 1511 1511 1511 1511 1511 1511 1511 1510 1510 1510 1510 1510 1509 1509 1509 1509 1509 1509 1508 1508 1508 1507 1507 1507 1506 1506 1506 1505 1505 1505 1504 1504 1504 1504 1503 1503 1503 1502 1502 1502 1501 1501 1500 1500 1500 1499 1499 1499 1499 1499 1498 1498 1498 1497 1497 1497 1497 1497 1497 1496 1496 1496 1495 1495 1495 1494 1494 1494 1494 1494 1494 1494 1494 1493 1493 1492 1492 1492 1491 1491 1490 1490 1490 1490 1489 1489 1489 1489 1489 1489 1489 1489 1489 1489 1489
1511 1511 1511 1511 1511 1511 1511 1511 1511 1511 1511 1511 1511 1510 1510 1510 1510 1510 1509 1509 1509 1509 1509 1508 1508 1508 1508 1507 1507 1506 1506 1506 1506 1505 1505 1505 1504 1504 1504 1504 1503 1503 1503 1502 1502 1502 1501 1501 1500 1500 1499 1499 1499 1499 1498 1498 1498 1498 1497 1497 1497 1496 1496 1496 1496 1496 1495 1495 1495 1494 1494 1494 1494 1494 1493 1493 1494 1494 1493 1493 1493 1493 1492 1492 1491 1491 1491 1490 1490 1489 1489 1489 1488 1488 1488 1488 1488 1487 1487 1487 1488 1488 1487
1511 1511 1511 1511 1511 1511 1511 1511 1511 1511 1511 1511 1510 1510 1510 1510 1509 1509 1509 1509 1509 1508 1508 1508 1508 1507 1507 1506 1506 1506 1505 1505 1505 1505 1504 1504 1504 1504 1503 1503 1503 1502 1502 1502 1501 1501 1500 1500 1499 1499 1499 1499 1498 1498 1497 1497 1497 1497 1496 1496 1496 1495 1495 1495 1494 1494 1494 1494 1493 1493 1493 1493 1493 1492 1492 1492 1492 1492 1492 1492 1492 1492 1491 1491 1490 1490 1490 1489 1489 1489 1488 1488 1487 1487 1486 1486 1486 1486 1486 1486 1485 1485 1485
1511 1511 1511 1511 1511 1511 1511 1511 1511 1511 1510 1510 1510 1510 1509 1509 1509 1509 1509 1508 1508 1508 1507 1507 1507 1507 1506 1506 1505 1505 1505 1504 1504 1504 1504 1504 1503 1503 1503 1502 1502 1502 1501 1501 1500 1500 1500 1499 1499 1499 1498 1498 1497 1497 1497 1496 1496 1495 1495 1495 1494 1494 1494 1494 1493 1493 1493 1492 1492 1491 1491 1492 1492 1491 1491 1491 1491 1491 1491 1491 1491 1490 1490 1490 1489 1489 1489 1488 1488 1487 1487 1487 1486 1486 1485 1485 1484 1484 1484 1484 1484 1484 1484
1511 1511 1511 1511 1511 1511 1511 1511 1510 1510 1510 1510 1510 1509 1509 1509 1509 1508 1508 1508 1507 1507 1507 1507 1506 1506 1506 1505 1505 1504 1504 1504 1504 1504 1503 1503 1503 1502 1502 1502 1501 1501 1500 1500 1500 1499 1499 1499 1498 1498 1497 1497 1497 1496 1496 1495 1495 1494 1494 1494 1494 1493 1493 1492 1492 1491 1491 1490 1490 1490 1491 1491 1491 1490 1490 1490 1490 1490 1490 1489 1489 1489 1489 1489 1488 1488 1488 1487 1487 1486 1486 1485 1485 1485 1484 1484 1484 1483 1483 1483 1482 1482 1482
1511 1511 1511 1511 1511 1511 1510 1510 1510 1510 1510 1510 1509 1509 1509 1509 1508 1508 1508 1507 1507 1507 1506 1506 1506 1505 1505 1505 1504 1504 1504 1504 1503 1503 1503 1502 1502 1502 1501 1501 1500 1500 1500 1499 1499 1499 1498 1498 1497 1497 1496 1496 1496 1495 1495 1494 1494 1494 1493 1493 1493 1492 1492 1491 1491 1490 1490 1490 1490 1490 1490 1490 1490 1490 1489 1489 1489 1489 1489 1488 1488 1488 1487 1487 1487 1486 1486 1486 1485 1485 1484 1484 1484 1483 1483 1482 1482 1482 1482 1482 1481 1481 1480
1511 1511 1511 1511 1511 1510 1510 1510 1510 1510 1509 1509 1509 1509 1509 1508 1508 1507 1507 1507 1507 1506 1506 1506 1505 1505 1504 1504 1504 1504 1503 1503 1502 1502 1502 1501 1501 1501 1500 1500 1500 1499 1499 1499 1498 1498 1497 1497 1496 1496 1495 1495 1494 1494 1494 1494 1493 1493 1492 1492 1492 1491 1491 1490 1490 1489 1489 1489 1489 1490 1490 1489 1489 1489 1489 1489 1488 1488 1488 1487 1487 1486 1486 1486 1485 1485 1485 1484 1484 1484 1483 1483 1483 1482 1481 1481 1481 1480 1480 1480 1480 1479 1479
1511 1511 1511 1511 1510 1510 1510 1510 1510 1509 1509 1509 1509 1508 1508 1508 1507 1507 1507 1507 1506 1506 1506 1505 1505 1504 1504 1504 1503 1503 1503 1502 1502 1501 1501 1500 1500 1500 1499 1499 1499 1498 1498 1498 1497 1497 1496 1496 1495 1495 1494 1494 1494 1493 1493 1493 1492 1492 1492 1491 1491 1490 1490 1490 1489 1489 1489 1489 1489 1489 1489 1489 1488 1488 1488 1488 1487 1487 1487 1486 1486 1485 1485 1484 1484 1484 1484 1483 1483 1482 1482 1482 1481 1481 1480 1480 1479 1479 1479 1478 1478 1478 1478
1511 1511 1511 1510 1510 1510 1510 1509 1509 1509 1509 1509 1508 1508 1508 1507 1507 1507 1506 1506 1506 1505 1505 1505 1504 1504 1504 1503 1503 1502 1502 1501 1501 1500 1500 1500 1499 1499 1499 1498 1498 1497 1497 1496 1496 1495 1495 1494 1494 1494 1493 1493 1493 1492 1492 1492 1491 1491 1491 1490 1490 1490 1489 1489 1489 1488 1488 1488 1488 1488 1488 1487 1487 1487 1486 1486 1486 1486 1485 1485 1485 1484 1484 1483 1483 1483 1482 1481 1481 1480 1480 1480 1479 1479 1479 1478 1478 1477 1477 1477 1476 1476 1476
1510 1510 1510 1510 1510 1510 1509 1509 1509 1509 1508 1508 1508 1507 1507 1507 1507 1506 1506 1506 1505 1505 1504 1504 1504 1503 1503 1503 1502 1502 1501 1501 1500 1500 1499 1499 1499 1498 1498 1497 1497 1496 1496 1496 1495 1495 1494 1494 1494 1493 1493 1492 1492 1492 1491 1491 1491 1490 1490 1490 1489 1489 1489 1488 1488 1488 1487 1487 1487 1487 1486 1486 1486 1485 1485 1485 1484 1484 1484 1484 1483 1483 1483 1482 1482 1481 1481 1480 1479 1479 1479 1479 1478 1478 1477 1477 1476 1476 1475 1475 1474 1474 1474
1510 1510 1510 1510 1509 1509 1509 1509 1509 1508 1508 1508 1507 1507 1507 1506 1506 1506 1505 1505 1505 1504 1504 1504 1503 1503 1502 1502 1502 1501 1501 1500 1500 1499 1499 1499 1498 1498 1497 1497 1496 1496 1495 1495 1494 1494 1494 1493 1493 1493 1492 1492 1491 1491 1491 1490 1490 1490 1489 1489 1489 1488 1488 1488 1487 1487 1487 1486 1486 1486 1485 1485 1485 1484 1484 1484 1483 1483 1483 1482 1482 1482 1481 1481 1480 1479 1479 1479 1478 1478 1478 1477 1476 1476 1475 1475 1474 1474 1474 1473 1473 1472 1472
1510 1509 1509 1509 1509 1509 1509 1508 1508 1508 1508 1507 1507 1507 1506 1506 1506 1505 1505 1505 1504 1504 1504 1503 1503 1502 1502 1501 1501 1501 1500 1500 1499 1499 1499 1498 1498 1497 1496 1496 1496 1495 1495 1494 1494 1494 1493 1493 1492 1492 1492 1491 1491 1491 1490 1490 1489 1489 1489 1488 1488 1488 1487 1487 1486 1486 1486 1485 1485 1485 1484 1484 1484 1483 1483 1482 1482 1482 1481 1481 1481 1480 1480 1479 1479 1478 1478 1477 1477 1476 1476 1475 1475 1474 1474 1474 1473 1472 1472 1471 1471 1470 1470
1509 1509 1509 1509 1509 1508 1508 1508 1508 1508 1507 1507 1507 1506 1506 1506 1505 1505 1504 1504 1504 1504 1503 1503 1502 1502 1501 1501 1500 1500 1499 1499 1499 1498 1498 1497 1497 1496 1496 1495 1495 1494 1494 1494 1493 1493 1492 1492 1492 1491 1491 1490 1490 1490 1489 1489 1489 1489 1488 1488 1487 1487 1486 1486 1486 1485 1485 1485 1484 1484 1483 1483 1482 1482 1482 1481 1481 1480 1480 1480 1479 1479 1478 1478 1477 1477 1476 1476 1475 1474 1474 1474 1474 1473 1473 1472 1472 1471 1470 1470 1470 1469 1469
1509 1509 1509 1509 1508 1508 1508 1508 1508 1507 1507 1507 1506 1506 1506 1505 1505 1504 1504 1504 1503 1503 1502 1502 1501 1501 1500 1500 1499 1499 1499 1499 1498 1498 1497 1496 1496 1495 1495 1494 1494 1494 1493 1493 1492 1492 1491 1491 1490 1490 1490 1489 1489 1489 1488 1488 1488 1487 1487 1486 1486 1485 1485 1485 1484 1484 1484 1484 1483 1483 1482 1482 1481 1481 1480 1480 1480 1479 1479 1478 1478 1478 1477 1476 1476 1475 1475 1474 1474 1474 1473 1472 1472 1472 1471 1471 1470 1470 1469 1469 1469 1468 1468
1508 1508 1508 1508 1508 1508 1508 1507 1507 1507 1507 1506 1506 1505 1505 1505 1504 1504 1504 1503 1503 1502 1501 1501 1500 1500 1499 1499 1499 1499 1498 1498 1497 1497 1496 1496 1495 1494 1494 1494 1493 1493 1492 1492 1491 1491 1490 1490 1489 1489 1489 1488 1488 1487 1487 1487 1486 1485 1485 1484 1484 1484 1484 1483 1483 1483 1482 1482 1481 1481 1480 1480 1480 1479 1479 1479 1478 1478 1478 1477 1477 1476 1476 1475 1475 1474 1474 1473 1473 1472 1472 1471 1470 1470 1470 1469 1469 1468 1468 1468 1467 1467 1466
1508 1508 1508 1508 1508 1507 1507 1507 1507 1507 1506 1506 1505 1505 1504 1504 1504 1504 1503 1502 1502 1501 1501 1500 1500 1499 1499 1499 1498 1498 1498 1497 1497 1496 1496 1495 1494 1494 1494 1493 1493 1492 1491 1491 1490 1490 1489 1489 1489 1488 1488 1487 1487 1486 1486 1485 1485 1484 1484 1483 1483 1483 1482 1482 1481 1481 1480 1480 1479 1479 1479 1478 1478 1477 1477 1477 1477 1476 1476 1476 1475 1475 1475 1474 1474 1474 1473 1472 1472 1471 1471 1470 1470 1469 1469 1469 1468 1467 1467 1466 1466 1465 1465
1508 1508 1508 1508 1507 1507 1507 1507 1506 1506 1505 1505 1505 1504 1504 1504 1504 1503 1502 1501 1501 1500 1500 1500 1499 1499 1499 1498 1498 1498 1497 1497 1496 1496 1495 1494 1494 1493 1493 1492 1492 1491 1491 1490 1489 1489 1489 1488 1488 1487 1487 1486 1485 1485 1484 1484 1484 1483 1483 1482 1482 1481 1480 1480 1479 1479 1479 1478 1478 1477 1477 1476 1476 1475 1475 1474 1474 1474 1474 1474 1474 1474 1474 1474 1473 1472 1471 1471 1470 1470 1469 1469 1469 1469 1468 1468 1467 1466 1466 1465 1464 1464 1463
1508 1508 1507 1507 1507 1507 1506 1506 1506 1505 1505 1504 1504 1504 1503 1503 1503 1502 1502 1501 1500 1500 1500 1499 1499 1499 1498 1498 1497 1497 1496 1496 1495 1495 1494 1494 1493 1492 1492 1491 1491 1490 1489 1489 1489 1488 1488 1487 1486 1486 1485 1485 1484 1484 1483 1483 1482 1482 1481 1481 1480 1480 1479 1479 1478 1477 1477 1477 1476 1476 1476 1475 1474 1474 1474 1473 1473 1473 1473 1473 1473 1473 1472 1472 1471 1470 1469 1468 1468 1467 1467 1466 1465 1465 1465 1465 1465 1464 1464 1463 1463 1462 1461
1507 1507 1506 1506 1506 1506 1506 1506 1505 1504 1504 1504 1504 1503 1503 1503 1502 1502 1501 1501 1500 1500 1499 1499 1499 1498 1498 1497 1497 1496 1495 1495 1494 1494 1494 1493 1492 1491 1491 1490 1489 1489 1489 1488 1487 1487 1486 1486 1485 1484 1484 1484 1483 1482 1482 1481 1481 1480 1480 1479 1479 1479 1478 1477 1477 1476 1476 1475 1475 1475 1474 1474 1474 1473 1473 1472 1472 1472 1472 1471 1471 1471 1469 1468 1467 1467 1466 1466 1465 1465 1464 1464 1464 1463 1463 1463 1463 1462 1461 1461 1460 1459 1459
1506 1506 1506 1506 1506 1506 1506 1505 1504 1504 1504 1503 1503 1503 1503 1502 1502 1501 1501 1500 1499 1499 1499 1498 1498 1497 1497 1496 1496 1495 1494 1494 1494 1493 1492 1492 1491 1490 1489 1489 1488 1488 1487 1487 1486 1486 1485 1484 1484 1483 1483 1482 1482 1481 1481 1480 1479 1479 1479 1478 1478 1477 1476 1476 1475 1475 1474 1474 1474 1474 1473 1473 1472 1472 1472 1471 1471 1471 1470 1470 1469 1468 1467 1466 1465 1464 1464 1463 1463 1463 1463 1463 1462 1461 1460 1460 1460 1460 1459 1459 1459 1458 1457
1506 1506 1505 1505 1505 1505 1505 1504 1504 1504 1503 1503 1503 1502 1502 1502 1501 1501 1500 1499 1499 1499 1498 1498 1497 1497 1496 1495 1495 1494 1494 1493 1492 1492 1491 1490 1490 1489 1489 1488 1487 1487 1486 1485 1485 1484 1484 1483 1483 1482 1481 1481 1480 1480 1479 1479 1478 1478 1477 1477 1476 1476 1475 1474 1474 1474 1473 1473 1473 1472 1472 1472 1471 1471 1470 1470 1469 1469 1469 1468 1467 1467 1466 1466 1465 1464 1463 1463 1462 1462 1462 1462 1461 1460 1459 1459 1459 1458 1458 1457 1457 1456 1456
1505 1505 1505 1505 1504 1504 1504 1504 1504 1503 1503 1503 1502 1502 1502 1501 1501 1500 1500 1499 1499 1498 1498 1497 1497 1496 1495 1495 1494 1493 1492 1492 1491 1490 1490 1489 1489 1488 1487 1486 1486 1485 1485 1484 1484 1483 1483 1482 1481 1481 1480 1479 1479 1478 1478 1477 1476 1476 1475 1475 1475 1474 1474 1473 1473 1472 1472 1472 1471 1471 1471 1470 1470 1469 1469 1469 1468 1467 1467 1466 1466 1465 1465 1465 1464 1464 1463 1462 1463 1462 1462 1461 1461 1460 1459 1458 1457 1456 1456 1456 1455 1455 1454
1505 1505 1504 1504 1504 1504 1504 1504 1503 1503 1503 1502 1502 1502 1501 1501 1500 1500 1499 1499 1498 1498 1497 1496 1496 1495 1494 1494 1493 1492 1491 1490 1490 1489 1489 1488 1487 1486 1486 1485 1484 1484 1484 1483 1482 1482 1481 1480 1480 1479 1479 1478 1478 1477 1476 1475 1475 1474 1474 1474 1473 1473 1472 1472 1471 1471 1471 1470 1470 1470 1469 1469 1469 1468 1468 1467 1466 1466 1465 1465 1464 1464 1464 1464 1463 1463 1462 1462 1462 1461 1461 1460 1459 1459 1458 1457 1456 1455 1455 1454 1454 1453 1453
1504 1504 1504 1504 1504 1504 1504 1503 1503 1503 1502 1502 1502 1501 1501 1501 1500 1500 1499 1499 1498 1497 1496 1496 1495 1494 1494 1493 1492 1491 1490 1489 1489 1488 1487 1487 1486 1485 1484 1484 1483 1483 1482 1482 1481 1480 1480 1479 1478 1478 1477 1477 1476 1475 1474 1474 1473 1473 1473 1472 1472 1471 1471 1470 1470 1470 1469 1469 1469 1469 1468 1468 1467 1467 1466 1466 1465 1465 1464 1464 1464 1463 1463 1462 1462 1461 1461 1461 1460 1459 1459 1458 1457 1457 1456 1455 1454 1454 1453 1453 1452 1452 1451
1504 1504 1504 1504 1503 1503 1503 1503 1503 1503 1502 1502 1502 1501 1501 1500 1500 1499 1499 1498 1497 1497 1496 1495 1494 1494 1493 1492 1491 1490 1489 1489 1488 1487 1486 1485 1484 1484 1483 1482 1482 1481 1481 1480 1479 1479 1478 1478 1477 1476 1475 1475 1474 1474 1473 1472 1472 1471 1471 1470 1470 1470 1469 1469 1469 1469 1468 1468 1468 1467 1467 1466 1466 1466 1465 1464 1464 1464 1463 1463 1462 1462 1461 1461 1461 1460 1460 1459 1459 1458 1457 1456 1456 1455 1454 1453 1453 1452 1452 1451 1450 1450 1449
1504 1504 1504 1503 1503 1503 1503 1503 1503 1503 1502 1502 1501 1501 1500 1500 1499 1499 1498 1497 1497 1496 1495 1494 1493 1492 1491 1490 1489 1489 1488 1487 1486 1486 1485 1484 1483 1483 1482 1481 1481 1480 1479 1479 1478 1478 1477 1476 1475 1474 1474 1473 1473 1472 1471 1471 1471 1470 1470 1469 1469 1469 1468 1468 1467 1467 1467 1467 1466 1466 1465 1465 1465 1464 1464 1463 1463 1462 1462 1461 1461 1460 1460 1460 1459 1459 1458 1458 1457 1456 1455 1455 1454 1453 1452 1452 1451 1450 1450 1449 1449 1448 1447
1504 1504 1504 1504 1504 1504 1503 1503 1503 1502 1502 1502 1501 1501 1500 1499 1499 1498 1497 1496 1495 1495 1494 1493 1492 1491 1490 1489 1488 1487 1486 1486 1485 1484 1483 1483 1482 1481 1481 1480 1479 1479 1478 1478 1477 1476 1475 1474 1474 1473 1472 1472 1471 1471 1470 1470 1469 1469 1469 1468 1468 1467 1467 1467 1466 1466 1466 1465 1465 1464 1464 1464 1463 1463 1462 1462 1461 1461 1460 1460 1459 1459 1459 1458 1458 1457 1457 1456 1455 1454 1454 1453 1452 1452 1451 1450 1449 1449 1448 1448 1447 1446 1445
1504 1504 1504 1504 1504 1504 1503 1503 1503 1502 1502 1501 1501 1500 1499 1499 1498 1497 1496 1495 1494 1494 1493 1492 1491 1490 1489 1488 1487 1486 1485 1484 1484 1483 1482 1481 1481 1480 1479 1479 1478 1478 1477 1476 1476 1475 1474 1473 1472 1472 1471 1470 1470 1469 1469 1469 1468 1468 1468 1467 1467 1466 1466 1465 1465 1465 1464 1464 1464 1463 1463 1462 1462 1461 1461 1460 1460 1459 1459 1458 1458 1457 1457 1456 1456 1455 1454 1454 1453 1452 1452 1451 1450 1449 1449 1448 1448 1447 1446 1445 1445 1444 1443
1504 1504 1504 1504 1504 1503 1503 1503 1502 1502 1501 1501 1500 1499 1499 1498 1497 1496 1495 1494 1493 1492 1491 1491 1490 1489 1488 1487 1486 1485 1484 1484 1483 1482 1481 1480 1480 1479 1479 1478 1477 1477 1476 1475 1475 1474 1473 1472 1471 1470 1470 1469 1469 1468 1468 1468 1467 1467 1467 1466 1466 1465 1465 1464 1464 1464 1463 1463 1462 1462 1461 1461 1460 1460 1459 1459 1458 1458 1457 1456 1456 1455 1455 1454 1454 1453 1453 1452 1451 1450 1449 1449 1448 1448 1447 1446 1446 1445 1444 1443 1443 1442 1441
1504 1504 1504 1504 1503 1503 1503 1502 1502 1501 1500 1500 1499 1499 1498 1497 1496 1495 1494 1493 1492 1491 1490 1489 1489 1488 1487 1486 1485 1484 1484 1483 1482 1481 1480 1480 1479 1478 1478 1477 1476 1476 1475 1474 1474 1473 1472 1471 1470 1469 1469 1468 1468 1467 1467 1467 1466 1466 1466 1465 1465 1464 1464 1463 1463 1462 1462 1461 1461 1460 1460 1459 1459 1458 1458 1457 1457 1456 1455 1454 1454 1454 1453 1452 1452 1451 1450 1449 1449 1448 1448 1447 1446 1445 1445 1444 1444 1443 1442 1441 1440 1439 1439
1504 1504 1504 1503 1503 1503 1502 1502 1501 1500 1500 1499 1498 1498 1497 1496 1495 1494 1494 1493 1491 1490 1489 1488 1488 1487 1486 1485 1484 1483 1483 1482 1481 1480 1479 1479 1478 1477 1477 1476 1475 1475 1474 1474 1473 1472 1471 1470 1469 1468 1468 1467 1467 1466 1466 1466 1466 1465 1465 1464 1464 1463 1463 1462 1462 1461 1460 1460 1459 1459 1458 1458 1457 1457 1456 1455 1455 1454 1454 1453 1452 1452 1451 1450 1450 1449 1448 1448 1447 1446 1445 1445 1444 1443 1443 1442 1441 1440 1440 1439 1438 1437 1436
1504 1503 1503 1503 1502 1502 1501 1501 1500 1500 1499 1498 1497 1497 1496 1495 1494 1493 1493 1492 1491 1490 1489 1488 1487 1486 1485 1484 1483 1482 1482 1481 1480 1479 1479 1478 1477 1477 1476 1475 1474 1474 1473 1472 1472 1471 1469 1469 1468 1467 1467 1466 1466 1466 1465 1465 1465 1464 1464 1463 1463 1462 1462 1461 1460 1460 1459 1458 1458 1457 1457 1456 1456 1455 1454 1454 1453 1452 1452 1451 1450 1450 1449 1448 1448 1447 1446 1445 1444 1444 1443 1442 1442 1441 1440 1439 1439 1438 1438 1437 1436 1435 1434
1503 1503 1502 1502 1502 1501 1501 1500 1499 1499 1498 1497 1497 1496 1495 1494 1493 1492 1492 1491 1490 1489 1488 1487 1486 1485 1484 1483 1482 1481 1480 1480 1479 1478 1478 1477 1476 1475 1475 1474 1473 1473 1472 1471 1470 1469 1469 1468 1467 1466 1466 1465 1465 1465 1464 1464 1464 1463 1463 1462 1462 1461 1460 1460 1459 1458 1458 1457 1456 1456 1455 1454 1454 1454 1453 1452 1451 1451 1450 1449 1449 1448 1447 1446 1445 1445 1444 1443 1442 1442 1441 1440 1439 1439 1438 1437 1436 1436 1435 1434 1433 1433 1432
1502 1502 1502 1502 1501 1501 1500 1499 1499 1498 1497 1497 1496 1495 1494 1493 1492 1492 1491 1490 1489 1489 1488 1487 1486 1485 1484 1483 1482 1480 1479 1479 1478 1477 1476 1476 1475 1474 1474 1473 1472 1471 1471 1470 1469 1469 1468 1467 1466 1465 1465 1465 1464 1464 1464 1464 1463 1462 1462 1461 1460 1460 1459 1459 1458 1457 1456 1456 1455 1454 1454 1453 1452 1452 1451 1450 1449 1449 1448 1447 1447 1446 1445 1444 1443 1443 1442 1441 1440 1439 1439 1438 1437 1436 1435 1435 1434 1433 1432 1432 1431 1430 1430
1502 1502 1501 1501 1500 1500 1499 1499 1498 1497 1497 1496 1495 1494 1493 1493 1492 1491 1490 1489 1489 1488 1487 1486 1485 1484 1483 1482 1481 1480 1479 1478 1477 1476 1475 1474 1474 1473 1472 1471 1470 1469 1469 1469 1468 1467 1467 1466 1465 1464 1464 1464 1464 1464 1463 1463 1462 1461 1461 1460 1459 1459 1458 1457 1457 1456 1455 1454 1454 1453 1452 1452 1451 1450 1449 1448 1447 1447 1446 1445 1444 1444 1443 1442 1441 1440 1439 1439 1438 1437 1436 1435 1434 1434 1433 1432 1431 1430 1430 1429 1429 1428 1428
1501 1501 1501 1500 1500 1499 1499 1498 1497 1497 1496 1495 1494 1493 1493 1492 1491 1490 1489 1489 1488 1487 1486 1486 1485 1484 1483 1482 1480 1479 1478 1477 1476 1475 1474 1473 1473 1472 1471 1469 1469 1468 1467 1467 1466 1466 1465 1465 1464 1464 1464 1464 1463 1463 1462 1461 1460 1460 1459 1459 1458 1457 1457 1456 1455 1454 1454 1453 1452 1451 1451 1450 1449 1448 1447 1446 1445 1444 1444 1443 1442 1441 1440 1439 1439 1438 1437 1436 1435 1434 1434 1433 1432 1431 1431 1430 1429 1428 1428 1427 1426 1426 1425
1501 1501 1500 1500 1499 1499 1498 1497 1497 1496 1495 1494 1494 1493 1492 1491 1490 1489 1489 1488 1487 1486 1485 1485 1484 1483 1482 1481 1480 1479 1477 1476 1475 1474 1473 1471 1471 1470 1469 1468 1467 1466 1466 1465 1465 1464 1464 1464 1463 1463 1463 1462 1462 1461 1460 1459 1459 1458 1457 1457 1456 1455 1455 1454 1453 1453 1452 1451 1450 1449 1449 1448 1447 1446 1445 1444 1444 1442 1441 1440 1439 1439 1438 1437 1436 1436 1435 1434 1433 1432 1432 1431 1430 1429 1428 1428 1427 1426 1425 1425 1424 1424 1423
1500 1500 1499 1499 1499 1498 1497 1497 1496 1495 1494 1494 1493 1492 1491 1490 1489 1489 1488 1487 1486 1485 1484 1484 1483 1482 1481 1480 1479 1477 1476 1475 1474 1473 1471 1470 1468 1467 1466 1466 1465 1464 1464 1464 1464 1463 1462 1462 1462 1461 1461 1461 1460 1459 1458 1457 1457 1456 1455 1454 1454 1453 1452 1452 1451 1450 1449 1449 1448 1447 1447 1446 1445 1444 1444 1443 1442 1441 1439 1439 1438 1437 1436 1435 1434 1434 1433 1432 1431 1430 1429 1429 1428 1427 1426 1425 1424 1424 1423 1423 1422 1422 1421
1500 1499 1499 1499 1498 1497 1497 1496 1495 1495 1494 1493 1492 1491 1490 1489 1489 1488 1487 1486 1485 1484 1484 1483 1482 1481 1480 1479 1478 1476 1475 1474 1473 1471 1470 1469 1467 1465 1464 1463 1463 1463 1463 1462 1462 1461 1461 1460 1460 1459 1459 1459 1458 1457 1456 1455 1455 1454 1453 1453 1452 1451 1450 1450 1449 1448 1448 1447 1446 1445 1445 1444 1443 1443 1442 1441 1440 1439 1438 1437 1436 1435 1434 1433 1432 1431 1430 1430 1429 1428 1427 1426 1425 1424 1424 1423 1422 1421 1421 1420 1420 1420 1419
1499 1499 1499 1498 1498 1497 1496 1496 1495 1494 1493 1492 1491 1491 1490 1489 1488 1487 1486 1485 1484 1484 1483 1482 1481 1480 1479 1478 1477 1476 1475 1473 1472 1470 1469 1468 1467 1466 1464 1462 1461 1460 1460 1460 1460 1460 1459 1459 1458 1458 1457 1456 1455 1455 1454 1453 1453 1452 1451 1451 1450 1449 1449 1448 1447 1446 1445 1445 1444 1444 1443 1442 1441 1441 1440 1439 1438 1437 1436 1435 1434 1433 1432 1431 1430 1429 1428 1427 1426 1426 1425 1424 1423 1422 1421 1421 1420 1419 1419 1418 1418 1418 1418
1499 1499 1498 1498 1497 1496 1496 1495 1494 1494 1493 1492 1491 1490 1489 1489 1488 1487 1485 1484 1484 1482 1482 1481 1480 1479 1478 1478 1477 1476 1474 1473 1472 1470 1469 1468 1467 1466 1464 1463 1460 1459 1457 1456 1457 1458 1458 1458 1456 1455 1455 1454 1453 1452 1452 1451 1451 1450 1450 1449 1448 1448 1447 1446 1445 1444 1444 1443 1442 1441 1441 1440 1439 1439 1438 1437 1436 1435 1434 1434 1433 1431 1430 1429 1428 1427 1426 1425 1424 1423 1423 1422 1421 1420 1419 1419 1418 1417 1416 1416 1416 1416 1416
1498 1498 1498 1497 1497 1496 1495 1494 1494 1493 1492 1491 1490 1489 1489 1488 1487 1486 1485 1484 1483 1482 1481 1480 1479 1479 1478 1477 1476 1475 1474 1473 1472 1470 1469 1468 1466 1464 1463 1463 1462 1460 1459 1457 1455 1454 1455 1455 1453 1452 1452 1451 1451 1450 1450 1449 1449 1449 1448 1447 1447 1446 1445 1444 1443 1442 1442 1441 1440 1439 1439 1438 1437 1437 1436 1435 1434 1433 1432 1432 1431 1429 1429 1427 1426 1425 1424 1423 1422 1421 1420 1419 1419 1418 1417 1416 1416 1415 1414 1414 1414 1414 1414
1498 1498 1497 1496 1496 1495 1494 1494 1493 1492 1491 1491 1490 1489 1488 1487 1486 1485 1484 1483 1482 1481 1480 1479 1479 1478 1477 1476 1476 1475 1474 1473 1471 1470 1469 1467 1466 1465 1463 1463 1462 1462 1460 1460 1458 1454 1452 1452 1450 1449 1449 1449 1449 1449 1448 1448 1447 1446 1446 1445 1444 1444 1443 1442 1441 1440 1439 1439 1438 1437 1436 1436 1435 1434 1434 1433 1432 1431 1430 1429 1429 1428 1426 1425 1424 1423 1422 1421 1420 1419 1418 1417 1416 1416 1415 1414 1414 1413 1413 1412 1412 1412 1412
1497 1497 1496 1496 1495 1494 1494 1493 1492 1491 1491 1490 1489 1488 1487 1486 1485 1484 1484 1483 1482 1481 1480 1479 1478 1477 1476 1475 1474 1474 1473 1472 1471 1470 1469 1467 1466 1466 1465 1463 1461 1460 1459 1459 1459 1457 1454 1451 1449 1447 1447 1447 1447 1446 1446 1445 1445 1444 1444 1443 1442 1442 1441 1440 1439 1438 1438 1437 1436 1435 1434 1434 1433 1432 1431 1430 1430 1429 1428 1427 1426 1425 1424 1423 1422 1421 1420 1419 1418 1417 1416 1415 1414 1414 1413 1412 1412 1411 1411 1410 1410 1410 1409
1497 1496 1495 1495 1494 1494 1493 1492 1491 1491 1490 1489 1488 1487 1487 1486 1485 1484 1483 1482 1481 1480 1479 1479 1477 1476 1475 1475 1474 1473 1473 1472 1471 1470 1469 1468 1467 1466 1465 1465 1464 1462 1460 1459 1458 1457 1455 1453 1449 1446 1444 1446 1446 1445 1444 1443 1443 1442 1442 1441 1440 1440 1439 1438 1437 1436 1435 1434 1434 1433 1432 1431 1430 1429 1429 1428 1427 1426 1426 1425 1424 1423 1422 1421 1420 1419 1418 1417 1416 1415 1414 1413 1412 1412 1411 1410 1410 1409 1409 1408 1408 1407 1407
1496 1495 1495 1494 1494 1493 1492 1491 1491 1490 1489 1488 1488 1487 1486 1485 1484 1484 1483 1482 1481 1480 1479 1478 1477 1476 1475 1474 1474 1473 1472 1471 1470 1470 1469 1468 1467 1466 1465 1465 1465 1465 1464 1463 1460 1457 1454 1453 1452 1449 1443 1442 1443 1444 1442 1441 1441 1440 1440 1439 1439 1438 1437 1436 1435 1434 1433 1432 1431 1431 1430 1429 1428 1427 1426 1426 1425 1424 1423 1423 1422 1421 1420 1419 1418 1417 1416 1415 1414 1413 1412 1411 1411 1410 1409 1409 1408 1408 1407 1406 1406 1405 1405
1495 1495 1494 1494 1493 1492 1492 1491 1490 1489 1489 1488 1487 1486 1485 1485 1484 1483 1482 1482 1481 1479 1479 1478 1477 1476 1475 1474 1473 1472 1471 1470 1469 1469 1468 1468 1467 1466 1465 1464 1464 1463 1463 1463 1461 1459 1455 1453 1453 1451 1445 1439 1438 1440 1441 1440 1439 1438 1438 1437 1437 1436 1435 1434 1433 1432 1431 1430 1429 1428 1427 1427 1426 1425 1424 1423 1423 1422 1421 1420 1419 1419 1418 1417 1416 1415 1414 1413 1412 1411 1410 1410 1409 1408 1408 1407 1406 1406 1405 1404 1404 1403 1402
1495 1494 1494 1493 1492 1492 1491 1490 1489 1489 1488 1487 1486 1486 1485 1484 1484 1483 1482 1481 1480 1479 1478 1477 1476 1475 1474 1473 1473 1472 1471 1469 1468 1468 1467 1466 1466 1465 1464 1464 1463 1463 1462 1461 1460 1459 1457 1455 1453 1450 1448 1442 1435 1433 1436 1438 1438 1437 1435 1435 1434 1434 1433 1432 1431 1430 1429 1428 1427 1426 1425 1424 1424 1423 1422 1421 1420 1419 1419 1418 1417 1416 1415 1414 1414 1413 1412 1411 1410 1409 1409 1408 1407 1406 1406 1405 1404 1404 1403 1402 1401 1401 1400
1494 1494 1493 1493 1492 1491 1490 1489 1489 1488 1487 1486 1486 1485 1484 1484 1483 1482 1481 1480 1480 1479 1478 1477 1476 1475 1474 1473 1472 1471 1470 1469 1468 1467 1466 1465 1464 1464 1463 1463 1462 1461 1460 1460 1459 1458 1457 1456 1454 1452 1450 1447 1441 1434 1430 1432 1434 1435 1434 1433 1432 1432 1431 1430 1429 1428 1427 1426 1425 1424 1423 1422 1421 1421 1420 1419 1418 1417 1416 1416 1415 1414 1414 1413 1412 1411 1410 1409 1408 1408 1407 1406 1405 1404 1404 1403 1402 1401 1400 1400 1399 1399 1398
1494 1493 1493 1492 1491 1490 1490 1489 1488 1487 1487 1486 1485 1484 1484 1483 1482 1482 1481 1480 1479 1479 1478 1477 1476 1475 1474 1473 1471 1470 1469 1468 1467 1466 1465 1464 1463 1462 1462 1461 1460 1459 1459 1458 1457 1456 1455 1454 1454 1453 1451 1448 1445 1440 1434 1430 1429 1431 1431 1431 1431 1430 1428 1427 1427 1426 1425 1424 1423 1422 1421 1420 1419 1419 1418 1417 1416 1415 1414 1414 1413 1412 1411 1410 1409 1409 1408 1407 1406 1405 1405 1404 1403 1403 1402 1401 1400 1399 1398 1397 1397 1396 1396